CW3776 Weather Reports


Display with metric or nautical units.
time (UTC)temp
F
wind
direction
speed
MPH
gust
MPH
rain 1hr
in
rain 24hr
in
rain mn
in
humidity
%
barometer
mb
20210929020104 69 96 0.0 1.0 0.00 0.00 0.00 76 1014.4
20210929015603 69 96 0.0 1.0 0.00 0.00 0.00 76 1014.3
20210929015103 69 122 0.0 0.0 0.00 0.00 0.00 76 1014.3
20210929014603 69 122 0.0 1.0 0.00 0.00 0.00 75 1014.3
20210929014103 69 122 0.0 1.0 0.00 0.00 0.00 75 1014.2
20210929013602 69 122 0.0 2.0 0.00 0.00 0.00 75 1014.1
20210929013103 69 86 0.0 0.0 0.00 0.00 0.00 75 1014.0
20210929012603 69 86 0.0 0.0 0.00 0.00 0.00 75 1014.0
20210929012103 69 86 0.0 0.0 0.00 0.00 0.00 75 1014.0
20210929011602 69 86 0.0 1.0 0.00 0.00 0.00 75 1014.0
20210929011103 69 86 0.0 0.0 0.00 0.00 0.00 75 1013.9
20210929010602 69 86 0.0 1.0 0.00 0.00 0.00 75 1013.9
20210929010103 69 86 1.0 2.0 0.00 0.00 0.00 75 1013.9
20210929005604 69 86 0.0 0.0 0.00 0.00 0.00 76 1013.9
20210929005102 69 86 0.0 0.0 0.00 0.00 0.00 76 1014.0
20210929004603 70 86 0.0 0.0 0.00 0.00 0.00 76 1013.9
20210929004103 70 86 0.0 0.0 0.00 0.00 0.00 76 1013.8
20210929003603 70 86 0.0 0.0 0.00 0.00 0.00 77 1013.8
20210929003103 70 86 1.0 2.0 0.00 0.00 0.00 77 1013.7
20210929002603 70 86 0.0 0.0 0.00 0.00 0.00 77 1013.7
20210929002103 70 86 0.0 0.0 0.00 0.00 0.00 77 1013.7
20210929001602 71 86 0.0 0.0 0.00 0.00 0.00 78 1013.7
20210929001103 71 86 0.0 0.0 0.00 0.00 0.00 78 1013.6
20210929000603 71 86 0.0 0.0 0.00 0.00 0.00 80 1013.5
20210929000103 71 86 0.0 0.0 0.00 0.00 0.00 81 1013.5
20210928235603 71 86 0.0 0.0 0.00 0.00 0.00 81 1013.4
20210928235103 72 86 0.0 0.0 0.00 0.00 0.00 81 1013.4
20210928234604 72 86 0.0 1.0 0.00 0.00 0.00 81 1013.3
20210928234103 72 86 0.0 1.0 0.00 0.00 0.00 81 1013.3
20210928233603 72 86 0.0 0.0 0.00 0.00 0.00 81 1013.1
20210928233103 73 86 1.0 1.0 0.00 0.00 0.00 80 1013.0
20210928232603 73 86 1.0 1.0 0.00 0.00 0.00 80 1013.0
20210928232103 74 86 0.0 1.0 0.00 0.00 0.00 78 1012.9
20210928231603 74 86 0.0 0.0 0.00 0.00 0.00 76 1012.9
20210928231104 74 86 0.0 0.0 0.00 0.00 0.00 78 1012.8
20210928230608 75 86 0.0 0.0 0.00 0.00 0.00 78 1012.7
20210928230108 76 86 0.0 1.0 0.00 0.00 0.00 75 1012.8
20210928225614 76 86 0.0 1.0 0.00 0.00 0.00 72 1012.8
20210928225116 76 86 0.0 0.0 0.00 0.00 0.00 72 1012.7
20210928224603 77 86 0.0 0.0 0.00 0.00 0.00 72 1012.6
20210928224103 77 86 0.0 1.0 0.00 0.00 0.00 71 1012.5
20210928223603 77 86 0.0 1.0 0.00 0.00 0.00 71 1012.5
20210928223104 78 86 0.0 1.0 0.00 0.00 0.00 70 1012.6
20210928222602 78 86 0.0 2.0 0.00 0.00 0.00 69 1012.6
20210928222103 79 86 0.0 1.0 0.00 0.00 0.00 68 1012.5
20210928221603 79 159 1.0 2.0 0.00 0.00 0.00 68 1012.5
20210928221103 79 171 1.0 2.0 0.00 0.00 0.00 66 1012.5
20210928220603 80 160 0.0 1.0 0.00 0.00 0.00 66 1012.6
20210928220103 80 173 1.0 3.0 0.00 0.00 0.00 66 1012.6
20210928215603 80 183 0.0 2.0 0.00 0.00 0.00 66 1012.6
20210928215104 80 166 1.0 3.0 0.00 0.00 0.00 64 1012.7
20210928214603 81 181 1.0 5.0 0.00 0.00 0.00 64 1012.7
20210928214103 81 161 2.0 3.0 0.00 0.00 0.00 63 1012.7
20210928213602 81 131 1.0 2.0 0.00 0.00 0.00 62 1012.8
20210928213102 81 154 2.0 3.0 0.00 0.00 0.00 62 1012.9
20210928212604 81 322 1.0 3.0 0.00 0.00 0.00 61 1012.9
20210928212103 81 159 1.0 3.0 0.00 0.00 0.00 62 1012.9
20210928211603 82 191 1.0 2.0 0.00 0.00 0.00 61 1013.0
20210928211103 82 134 2.0 7.0 0.00 0.00 0.00 60 1013.0
20210928210603 82 3 1.0 3.0 0.00 0.00 0.00 61 1013.0
20210928210103 82 274 1.0 3.0 0.00 0.00 0.00 60 1013.1
20210928205603 82 160 1.0 5.0 0.00 0.00 0.00 61 1013.1
20210928205104 83 179 2.0 7.0 0.00 0.00 0.00 59 1013.1
20210928204603 83 301 2.0 5.0 0.00 0.00 0.00 58 1013.2
20210928204103 83 336 2.0 5.0 0.00 0.00 0.00 55 1013.2
20210928203603 84 161 2.0 6.0 0.00 0.00 0.00 56 1013.2
20210928203103 83 290 2.0 3.0 0.00 0.00 0.00 57 1013.3
20210928202602 83 170 2.0 3.0 0.00 0.00 0.00 58 1013.3
20210928202103 84 329 1.0 6.0 0.00 0.00 0.00 57 1013.3
20210928201602 84 286 2.0 5.0 0.00 0.00 0.00 58 1013.4
20210928201102 84 124 1.0 3.0 0.00 0.00 0.00 58 1013.4
20210928200603 84 276 2.0 5.0 0.00 0.00 0.00 56 1013.5
20210928200103 84 318 2.0 6.0 0.00 0.00 0.00 56 1013.6
20210928195603 84 194 1.0 3.0 0.00 0.00 0.00 58 1013.6
20210928195103 84 24 1.0 3.0 0.00 0.00 0.00 60 1013.7
20210928194603 84 164 2.0 3.0 0.00 0.00 0.00 56 1013.7
20210928194103 84 160 2.0 3.0 0.00 0.00 0.00 60 1013.8
20210928193603 85 273 1.0 3.0 0.00 0.00 0.00 55 1013.8
20210928193102 85 336 1.0 3.0 0.00 0.00 0.00 54 1013.9
20210928192603 85 147 2.0 3.0 0.00 0.00 0.00 55 1014.0
20210928192103 85 297 2.0 3.0 0.00 0.00 0.00 56 1014.0
20210928191603 85 298 2.0 6.0 0.00 0.00 0.00 55 1014.1
20210928191103 85 290 2.0 5.0 0.00 0.00 0.00 57 1014.2
20210928190603 85 302 2.0 6.0 0.00 0.00 0.00 56 1014.3
20210928190103 85 319 3.0 5.0 0.00 0.00 0.00 56 1014.3
20210928185603 85 234 2.0 5.0 0.00 0.00 0.00 55 1014.2
20210928185103 85 176 3.0 5.0 0.00 0.00 0.00 56 1014.3
20210928184603 85 313 2.0 6.0 0.00 0.00 0.00 56 1014.3
20210928184103 85 302 2.0 6.0 0.00 0.00 0.00 56 1014.4
20210928183603 85 301 2.0 6.0 0.00 0.00 0.00 55 1014.5
20210928183103 85 295 3.0 5.0 0.00 0.00 0.00 59 1014.6
20210928182602 84 34 3.0 7.0 0.00 0.00 0.00 57 1014.7
20210928182103 85 233 3.0 6.0 0.00 0.00 0.00 55 1014.7
20210928181603 85 297 1.0 3.0 0.00 0.00 0.00 57 1014.8
20210928181103 84 154 2.0 7.0 0.00 0.00 0.00 57 1014.8
20210928180603 84 287 2.0 7.0 0.00 0.00 0.00 60 1015.0
20210928180103 83 241 3.0 6.0 0.00 0.00 0.00 58 1015.0
20210928175603 84 305 3.0 6.0 0.00 0.00 0.00 58 1015.0
20210928175103 85 319 1.0 5.0 0.00 0.00 0.00 60 1015.1
20210928174602 84 346 2.0 5.0 0.00 0.00 0.00 57 1015.1
20210928174103 85 277 2.0 7.0 0.00 0.00 0.00 57 1015.3
20210928173603 84 197 1.0 3.0 0.00 0.00 0.00 58 1015.3
20210928173103 84 351 1.0 6.0 0.00 0.00 0.00 58 1015.4
20210928172603 84 282 4.0 8.0 0.00 0.00 0.00 57 1015.5
20210928172102 83 323 3.0 6.0 0.00 0.00 0.00 57 1015.5
20210928171603 83 12 1.0 6.0 0.00 0.00 0.00 58 1015.6
20210928171103 83 311 2.0 5.0 0.00 0.00 0.00 57 1015.6
20210928170602 83 67 1.0 3.0 0.00 0.00 0.00 60 1015.7
20210928170103 83 152 2.0 6.0 0.00 0.00 0.00 60 1015.7
20210928165603 83 288 3.0 5.0 0.00 0.00 0.00 58 1015.8
20210928165102 83 312 4.0 7.0 0.00 0.00 0.00 56 1015.8
20210928164603 83 128 2.0 7.0 0.00 0.00 0.00 60 1015.9
20210928164102 83 340 3.0 5.0 0.00 0.00 0.00 57 1015.9
20210928163603 83 275 2.0 6.0 0.00 0.00 0.00 59 1016.0
20210928163103 83 288 2.0 5.0 0.00 0.00 0.00 60 1016.1
20210928162603 84 16 2.0 3.0 0.00 0.00 0.00 60 1016.1
20210928162102 83 165 2.0 6.0 0.00 0.00 0.00 60 1016.1
20210928161604 83 274 1.0 3.0 0.00 0.00 0.00 58 1016.1
20210928161103 83 242 1.0 2.0 0.00 0.00 0.00 64 1016.2
20210928160603 82 282 2.0 3.0 0.00 0.00 0.00 62 1016.2
20210928160104 82 292 5.0 10.0 0.00 0.00 0.00 62 1016.3
20210928155603 82 288 2.0 7.0 0.00 0.00 0.00 61 1016.4
20210928155103 82 301 3.0 6.0 0.00 0.00 0.00 59 1016.4
20210928154603 82 303 2.0 8.0 0.00 0.00 0.00 60 1016.6
20210928154104 81 309 2.0 7.0 0.00 0.00 0.00 59 1016.6
20210928153603 81 285 2.0 5.0 0.00 0.00 0.00 58 1016.7
20210928153103 81 277 1.0 3.0 0.00 0.00 0.00 60 1016.7
20210928152603 81 146 2.0 3.0 0.00 0.00 0.00 61 1016.7
20210928152103 80 246 1.0 3.0 0.00 0.00 0.00 59 1016.8
20210928151603 80 71 1.0 3.0 0.00 0.00 0.00 60 1016.9
20210928151104 80 180 1.0 3.0 0.00 0.00 0.00 63 1016.8
20210928150603 79 290 3.0 5.0 0.00 0.00 0.00 60 1016.9
20210928150103 80 295 2.0 3.0 0.00 0.00 0.00 61 1016.9
20210928145603 79 274 1.0 3.0 0.00 0.00 0.00 62 1017.0
20210928145103 78 307 2.0 5.0 0.00 0.00 0.00 63 1017.0
20210928144603 78 307 2.0 8.0 0.00 0.00 0.00 63 1017.1
20210928144103 78 278 2.0 6.0 0.00 0.00 0.00 63 1017.1
20210928143603 78 285 1.0 5.0 0.00 0.00 0.00 63 1017.1
20210928143103 78 261 2.0 6.0 0.00 0.00 0.00 64 1017.2
20210928142603 78 329 2.0 3.0 0.00 0.00 0.00 63 1017.2
20210928142102 77 297 2.0 5.0 0.00 0.00 0.00 64 1017.3
20210928141604 76 307 0.0 5.0 0.00 0.00 0.00 67 1017.3
20210928141103 76 294 3.0 9.0 0.00 0.00 0.00 64 1017.3
20210928140603 76 286 3.0 8.0 0.00 0.00 0.00 65 1017.3
20210928140103 75 336 3.0 10.0 0.00 0.00 0.00 67 1017.4
20210928135603 75 316 3.0 6.0 0.00 0.00 0.00 67 1017.3
20210928135103 75 303 3.0 5.0 0.00 0.00 0.00 67 1017.3
20210928134603 74 311 3.0 8.0 0.00 0.00 0.00 68 1017.2
20210928134103 74 290 2.0 9.0 0.00 0.00 0.00 70 1017.3
20210928133603 73 349 2.0 5.0 0.00 0.00 0.00 70 1017.2
20210928133103 73 290 2.0 5.0 0.00 0.00 0.00 71 1017.2
20210928132603 73 281 1.0 3.0 0.00 0.00 0.00 72 1017.2
20210928132103 72 276 3.0 5.0 0.00 0.00 0.00 73 1017.3
20210928131604 72 301 2.0 3.0 0.00 0.00 0.00 73 1017.3
20210928131103 71 267 2.0 3.0 0.00 0.00 0.00 74 1017.2
20210928130603 71 295 2.0 5.0 0.00 0.00 0.00 75 1017.2
20210928130103 70 275 1.0 3.0 0.00 0.00 0.00 76 1017.2
20210928125603 70 270 2.0 6.0 0.00 0.00 0.00 77 1017.2
20210928125104 69 276 1.0 3.0 0.00 0.00 0.00 79 1017.2
20210928124603 69 311 1.0 3.0 0.00 0.00 0.00 80 1017.1
20210928124103 68 237 2.0 5.0 0.00 0.00 0.00 81 1017.2
20210928123603 67 230 1.0 2.0 0.00 0.00 0.00 82 1017.1
20210928123103 67 287 1.0 3.0 0.00 0.00 0.00 82 1017.0
20210928122604 66 121 1.0 3.0 0.00 0.00 0.00 82 1017.0
20210928122103 66 169 1.0 2.0 0.00 0.00 0.00 82 1016.9
20210928121604 66 1 1.0 2.0 0.00 0.00 0.00 82 1016.9
20210928121104 65 147 0.0 1.0 0.00 0.00 0.00 82 1016.8
20210928120603 65 147 0.0 2.0 0.00 0.00 0.00 82 1016.8
20210928120103 64 150 0.0 1.0 0.00 0.00 0.00 83 1016.8
20210928115603 64 139 0.0 0.0 0.00 0.00 0.00 82 1016.8
20210928115103 64 139 0.0 0.0 0.00 0.00 0.00 83 1016.9
20210928114604 63 155 0.0 0.0 0.00 0.00 0.00 82 1016.9
20210928114104 63 154 0.0 0.0 0.00 0.00 0.00 82 1016.9
20210928113603 63 154 0.0 0.0 0.00 0.00 0.00 82 1016.8
20210928113103 63 154 0.0 0.0 0.00 0.00 0.00 82 1016.8
20210928112603 63 154 0.0 0.0 0.00 0.00 0.00 82 1016.8
20210928112103 62 154 0.0 0.0 0.00 0.00 0.00 82 1016.8
20210928111603 62 154 0.0 0.0 0.00 0.00 0.00 82 1016.8
20210928111103 62 154 0.0 0.0 0.00 0.00 0.00 82 1016.8
20210928110603 62 154 0.0 0.0 0.00 0.00 0.00 82 1016.8
20210928110103 62 154 0.0 0.0 0.00 0.00 0.00 82 1016.7
20210928105603 63 154 0.0 0.0 0.00 0.00 0.00 82 1016.6
20210928105103 63 154 0.0 0.0 0.00 0.00 0.00 82 1016.5
20210928104603 63 154 0.0 0.0 0.00 0.00 0.00 82 1016.5
20210928104104 63 154 0.0 0.0 0.00 0.00 0.00 82 1016.4
20210928103603 63 154 0.0 0.0 0.00 0.00 0.00 82 1016.5
20210928103103 63 154 0.0 0.0 0.00 0.00 0.00 82 1016.5
20210928102604 63 154 0.0 0.0 0.00 0.00 0.00 82 1016.4
20210928102103 63 154 0.0 0.0 0.00 0.00 0.00 82 1016.4
20210928101603 63 154 0.0 0.0 0.00 0.00 0.00 82 1016.4
20210928101103 63 154 0.0 0.0 0.00 0.00 0.00 82 1016.3
20210928100604 63 154 0.0 0.0 0.00 0.00 0.00 82 1016.3
20210928100104 63 154 0.0 0.0 0.00 0.00 0.00 82 1016.3
20210928095603 63 154 0.0 0.0 0.00 0.00 0.00 82 1016.2
20210928095103 63 154 0.0 0.0 0.00 0.00 0.00 82 1016.2
20210928094604 63 154 0.0 0.0 0.00 0.00 0.00 82 1016.1
20210928094103 63 154 0.0 0.0 0.00 0.00 0.00 82 1016.1
20210928093603 64 154 0.0 0.0 0.00 0.00 0.00 82 1016.1
20210928093103 64 154 0.0 0.0 0.00 0.00 0.00 82 1016.1
20210928092603 64 154 0.0 0.0 0.00 0.00 0.00 82 1016.1
20210928092104 64 154 0.0 0.0 0.00 0.00 0.00 82 1016.1
20210928091603 64 154 0.0 0.0 0.00 0.00 0.00 82 1016.1
20210928091103 64 154 0.0 0.0 0.00 0.00 0.00 82 1016.1
20210928090604 64 154 0.0 0.0 0.00 0.00 0.00 82 1016.1
20210928090103 64 154 0.0 0.0 0.00 0.00 0.00 82 1016.1
20210928085603 64 154 0.0 0.0 0.00 0.00 0.00 82 1016.1
20210928085104 64 154 0.0 0.0 0.00 0.00 0.00 82 1016.2
20210928084604 64 154 0.0 0.0 0.00 0.00 0.00 82 1016.2
20210928084103 64 154 0.0 0.0 0.00 0.00 0.00 82 1016.2
20210928083603 64 154 0.0 0.0 0.00 0.00 0.00 82 1016.2
20210928083103 64 154 0.0 0.0 0.00 0.00 0.00 81 1016.2
20210928082604 64 154 0.0 0.0 0.00 0.00 0.00 81 1016.2
20210928082104 64 154 0.0 0.0 0.00 0.00 0.00 81 1016.2
20210928081603 64 154 0.0 0.0 0.00 0.00 0.00 81 1016.2
20210928081105 64 154 0.0 0.0 0.00 0.00 0.00 81 1016.2
20210928080604 65 154 0.0 0.0 0.00 0.00 0.00 81 1016.2
20210928080103 65 154 0.0 1.0 0.00 0.00 0.00 81 1016.3
20210928075603 65 154 0.0 0.0 0.00 0.00 0.00 81 1016.3
20210928075103 65 154 0.0 0.0 0.00 0.00 0.00 81 1016.3
20210928074603 65 154 0.0 0.0 0.00 0.00 0.00 81 1016.3
20210928074104 65 154 0.0 0.0 0.00 0.00 0.00 81 1016.3
20210928073604 65 154 0.0 1.0 0.00 0.00 0.00 81 1016.4
20210928073103 65 154 0.0 1.0 0.00 0.00 0.00 81 1016.5
20210928072603 65 154 0.0 0.0 0.00 0.00 0.00 81 1016.5
20210928072104 65 154 0.0 0.0 0.00 0.00 0.00 81 1016.5
20210928071604 65 154 0.0 0.0 0.00 0.00 0.00 80 1016.6
20210928071103 65 154 0.0 1.0 0.00 0.00 0.00 80 1016.6
20210928070603 65 154 0.0 1.0 0.00 0.00 0.00 80 1016.6
20210928070104 65 225 0.0 1.0 0.00 0.00 0.00 80 1016.7
20210928065604 65 225 0.0 0.0 0.00 0.00 0.00 80 1016.7
20210928065104 65 225 0.0 1.0 0.00 0.00 0.00 80 1016.7
20210928064603 65 225 0.0 0.0 0.00 0.00 0.00 80 1016.7
20210928064103 65 225 0.0 0.0 0.00 0.00 0.00 79 1016.7
20210928063604 65 225 0.0 0.0 0.00 0.00 0.00 79 1016.7
20210928063103 66 225 0.0 1.0 0.00 0.00 0.00 79 1016.8
20210928062603 66 225 0.0 1.0 0.00 0.00 0.00 79 1016.9
20210928062103 66 225 0.0 1.0 0.00 0.00 0.00 79 1016.9
20210928061604 66 225 0.0 0.0 0.00 0.00 0.00 78 1016.9
20210928061104 66 225 0.0 0.0 0.00 0.00 0.00 78 1016.9
20210928060604 66 225 0.0 0.0 0.00 0.00 0.00 78 1016.9
20210928060104 66 225 0.0 1.0 0.00 0.00 0.00 78 1016.9
20210928055604 66 236 0.0 1.0 0.00 0.00 0.00 78 1016.9
20210928055103 66 254 0.0 0.0 0.00 0.00 0.00 78 1016.9
20210928054603 66 254 0.0 1.0 0.00 0.00 0.00 78 1016.9
20210928054104 66 254 0.0 1.0 0.00 0.00 0.00 78 1016.9
20210928053603 66 254 0.0 1.0 0.00 0.00 0.00 78 1016.9
20210928053103 66 254 0.0 1.0 0.00 0.00 0.00 78 1016.9
20210928052603 67 199 0.0 1.0 0.00 0.00 0.00 78 1016.9
20210928052103 67 217 0.0 1.0 0.00 0.00 0.00 77 1017.0
20210928051604 67 217 0.0 1.0 0.00 0.00 0.00 77 1017.0
20210928051103 67 222 1.0 1.0 0.00 0.00 0.00 78 1017.1
20210928050604 67 306 1.0 2.0 0.00 0.00 0.00 77 1017.2
20210928050103 67 269 0.0 2.0 0.00 0.00 0.00 77 1017.3
20210928045604 67 225 0.0 1.0 0.00 0.00 0.00 77 1017.3
20210928045104 67 215 1.0 1.0 0.00 0.00 0.00 77 1017.4
20210928044603 67 182 0.0 2.0 0.00 0.00 0.00 77 1017.4
20210928044103 67 173 0.0 1.0 0.00 0.00 0.00 77 1017.4
20210928043603 67 154 0.0 1.0 0.00 0.00 0.00 77 1017.5
20210928043103 67 154 0.0 1.0 0.00 0.00 0.00 77 1017.5
20210928042604 67 161 0.0 1.0 0.00 0.00 0.00 78 1017.6
20210928042103 67 161 1.0 1.0 0.00 0.00 0.00 78 1017.6
20210928041603 67 150 1.0 2.0 0.00 0.00 0.00 78 1017.6
20210928041104 67 88 1.0 3.0 0.00 0.00 0.00 78 1017.6
20210928040603 67 145 0.0 1.0 0.00 0.00 0.00 78 1017.6
20210928040103 66 210 0.0 1.0 0.00 0.00 0.00 77 1017.7
20210928035604 66 261 1.0 2.0 0.00 0.00 0.00 77 1017.7
20210928035104 66 134 0.0 0.0 0.00 0.00 0.00 77 1017.7
20210928034604 66 135 0.0 1.0 0.00 0.00 0.00 76 1017.8
20210928034103 67 135 0.0 0.0 0.00 0.00 0.00 76 1017.8
20210928033603 67 135 0.0 0.0 0.00 0.00 0.00 75 1017.8
20210928033104 67 135 0.0 0.0 0.00 0.00 0.00 75 1017.8
20210928032605 67 135 0.0 0.0 0.00 0.00 0.00 75 1017.8
20210928032103 67 135 0.0 0.0 0.00 0.00 0.00 75 1017.8
20210928031604 67 135 0.0 0.0 0.00 0.00 0.00 75 1017.8
20210928031104 67 135 0.0 0.0 0.00 0.00 0.00 75 1017.8
20210928030603 67 135 0.0 2.0 0.00 0.00 0.00 75 1017.8
20210928030104 67 71 0.0 0.0 0.00 0.00 0.00 76 1017.8
20210928025604 67 71 0.0 0.0 0.00 0.00 0.00 76 1017.8
20210928025103 68 71 0.0 0.0 0.00 0.00 0.00 76 1017.7
20210928024603 68 71 0.0 0.0 0.00 0.00 0.00 76 1017.7
20210928024103 68 71 0.0 0.0 0.00 0.00 0.00 76 1017.7
20210928023603 68 71 0.0 0.0 0.00 0.00 0.00 76 1017.8
20210928023104 68 71 0.0 1.0 0.00 0.00 0.00 76 1017.8
20210928022604 68 171 0.0 0.0 0.00 0.00 0.00 76 1017.8
20210928022104 68 155 0.0 1.0 0.00 0.00 0.00 76 1017.8
20210928021604 68 155 0.0 2.0 0.00 0.00 0.00 76 1017.8
20210928021103 68 188 0.0 2.0 0.00 0.00 0.00 76 1017.7
20210928020603 68 207 0.0 2.0 0.00 0.00 0.00 76 1017.7